This is the latest recevied weather packets stored in our database for station/object 7L2IWN-13. If no packets are shown the sender has not sent any weather packets the latest 10 day(s).
| Time | Temp. | Humidity | Pressure | Rain* | Wind** | Luminosity | Snow |
|---|---|---|---|---|---|---|---|
| 1777779980 | 22.22° C | 55% | 1007.7 hPa | 0 mm | - | - | - |
| 1777779261 | 21.67° C | 56% | 1008 hPa | 0 mm | - | - | - |
| 1777778542 | 21.11° C | 58% | 1008.3 hPa | 0 mm | - | - | - |
| 1777777821 | 21.11° C | 57% | 1008.7 hPa | 0 mm | - | - | - |
| 1777777100 | 22.22° C | 55% | 1008.8 hPa | 0 mm | - | - | - |
| 1777776380 | 20.56° C | 56% | 1009.2 hPa | 0 mm | - | - | - |
| 1777775661 | 19.44° C | 58% | 1009.5 hPa | 0 mm | - | - | - |
| 1777774941 | 19.44° C | 62% | 1009.6 hPa | 0 mm | - | - | - |
| 1777774223 | 19.44° C | 63% | 1010.3 hPa | 0 mm | - | - | - |
| 1777773502 | 18.89° C | 64% | 1010.3 hPa | 0 mm | - | - | - |
| 1777772780 | 19.44° C | 65% | 1010.6 hPa | 0 mm | - | - | - |
| 1777772060 | 18.33° C | 67% | 1010.7 hPa | 0 mm | - | - | - |
| 1777771340 | 17.78° C | 69% | 1011 hPa | 0 mm | - | - | - |
| 1777770621 | 17.22° C | 69% | 1011.2 hPa | 0 mm | - | - | - |
| 1777769901 | 16.67° C | 72% | 1011.4 hPa | 0 mm | - | - | - |
| 1777769182 | 15.56° C | 75% | 1011.3 hPa | 0 mm | - | - | - |
| 1777768461 | 15° C | 81% | 1011.4 hPa | 0 mm | - | - | - |
| 1777767741 | 15° C | 84% | 1011.5 hPa | 0 mm | - | - | - |
| 1777767023 | 15° C | 84% | 1011.9 hPa | 0 mm | - | - | - |
| 1777766301 | 14.44° C | 83% | 1012.3 hPa | 0 mm | - | - | - |
| 1777765581 | 13.89° C | 87% | 1012.6 hPa | 0 mm | - | - | - |
| 1777764861 | 13.89° C | 87% | 1012.5 hPa | 0 mm | - | - | - |
| 1777764141 | 13.89° C | 86% | 1012.3 hPa | 0 mm | - | - | - |
| 1777761981 | 12.78° C | 90% | 1012.4 hPa | 0 mm | - | - | - |
| 1777760541 | 12.78° C | 93% | 1012.8 hPa | 0 mm | - | - | - |
* Rain latest hour (hover to see other rain measurements)
** Current wind speed in m/s (hover to see current wind gust speed)